This is the latest recevied weather packets stored in our database for station/object K7OWW-2. If no packets are shown the sender has not sent any weather packets the latest 10 day(s).
| Time | Temp. | Humidity | Pressure | Rain* | Wind** | Luminosity | Snow |
|---|---|---|---|---|---|---|---|
| 1788247132 | 9.44° C | 73% | 1010.1 hPa | 0 mm | - | - | - |
| 1788246834 | 9.44° C | 72% | 1010.1 hPa | 0 mm | - | - | - |
| 1788246532 | 9.44° C | 73% | 1010 hPa | 0 mm | - | - | - |
| 1788245932 | 10° C | 72% | 1010 hPa | 0 mm | - | - | - |
| 1788245332 | 10° C | 72% | 1010 hPa | 0 mm | - | - | - |
| 1788244732 | 10° C | 71% | 1009.9 hPa | 0 mm | - | - | - |
| 1788244135 | 10.56° C | 70% | 1010 hPa | 0 mm | - | - | - |
| 1788243532 | 11.11° C | 69% | 1009.9 hPa | 0 mm | - | - | - |
| 1788242932 | 11.11° C | 67% | 1009.8 hPa | 0 mm | - | - | - |
| 1788242332 | 11.67° C | 66% | 1010 hPa | 0 mm | - | - | - |
| 1788241732 | 12.22° C | 65% | 1010.1 hPa | 0 mm | - | - | - |
| 1788241132 | 12.22° C | 64% | 1010.1 hPa | 0 mm | - | - | - |
| 1788240532 | 12.78° C | 63% | 1010.1 hPa | 0 mm | - | - | - |
| 1788239932 | 13.33° C | 62% | 1010.2 hPa | 0 mm | - | - | - |
| 1788239332 | 13.33° C | 61% | 1010.2 hPa | 0 mm | - | - | - |
| 1788238732 | 13.33° C | 62% | 1010.3 hPa | 0 mm | - | - | - |
| 1788238132 | 13.89° C | 59% | 1010.3 hPa | 0 mm | - | - | - |
| 1788237532 | 14.44° C | 59% | 1010.2 hPa | 0 mm | - | - | - |
| 1788236932 | 14.44° C | 58% | 1010 hPa | 0 mm | - | - | - |
| 1788236332 | 15° C | 56% | 1009.9 hPa | 0 mm | - | - | - |
| 1788235732 | 15.56° C | 54% | 1009.7 hPa | 0 mm | - | - | - |
| 1788235132 | 16.11° C | 52% | 1009.7 hPa | 0 mm | - | - | - |
| 1788234532 | 16.67° C | 52% | 1009.4 hPa | 0 mm | - | - | - |
| 1788233932 | 17.22° C | 50% | 1009.3 hPa | 0 mm | - | - | - |
| 1788233332 | 17.22° C | 50% | 1009.3 hPa | 0 mm | - | - | - |
* Rain latest hour (hover to see other rain measurements)
** Current wind speed in m/s (hover to see current wind gust speed)